Dewpoint
33 34 33 33 34 34 35 34 30 26 27 32 30 31 32 32 34 39 37 39 40 40 43 43 44 42 34 35 37 38 40 42 43 45 45 44 44 45
33 29 26 25 27 28 32 33 33 31 27 29 28 27 25 24 25 30 37 34 37 39 40 41 39 41 40 34 31 32 32 33 34 36 39 44 43 40
23 23 22 23 21 22 23 25 27 29 27 25 28 24 22 22 22 24 24 36 36 36 38 41 40 40 36 34 32 29 27 26 26 28 31 34 37 43
22 22 21 20 20 21 21 22 25 25 24 22 23 21 20 21 22 21 23 23 30 31 33 36 40 39 37 32 31 31 27 24 24 26 28 30 33 36
21 21 21 20 19 19 20 21 22 22 24 22 21 21 21 20 21 23 24 25 25 26 28 27 35 39 37 34 31 30 29 27 26 28 28 29 30 32
22 21 20 18 18 19 20 21 23 23 23 22 21 20 20 20 22 22 22 23 22 23 28 28 30 32 34 35 35 34 32 31 31 32 32 32 32 32
21 20 18 17 17 17 20 21 27 26 25 23 21 20 19 18 18 22 20 20 19 26 26 26 26 27 29 29 31 34 34 34 34 34 33 33 33 33
20 19 19 18 18 19 21 22 22 26 24 25 23 20 18 18 20 19 20 19 18 25 24 22 26 26 27 30 31 31 32 30 30 31 33 34 35 35
21 20 19 18 20 21 22 22 21 22 23 23 24 24 22 22 21 20 20 21 21 23 25 24 24 23 25 26 27 30 29 29 29 29 29 30 31 33
22 21 19 20 20 20 23 25 23 24 24 23 22 24 24 24 23 23 22 22 26 27 26 23 24 23 24 25 27 30 32 31 29 28 28 27 28 29
20 19 19 22 22 22 22 23 22 21 21 23 26 26 27 28 28 28 25 24 21 22 24 23 22 22 22 23 25 27 28 29 30 30 29 29 29 29
18 18 18 19 22 25 25 23 21 20 20 21 23 22 21 21 21 22 22 21 22 22 22 21 20 20 19 22 22 24 27 29 30 31 32 31 31 31
17 17 19 21 21 21 24 23 22 25 24 23 22 21 21 21 22 23 23 23 22 21 23 22 22 21 21 22 23 24 24 24 26 28 30 32 32 33
18 19 22 20 22 23 23 24 23 24 24 22 21 21 22 23 25 27 28 28 26 24 24 25 24 24 22 22 24 24 24 24 25 26 27 29 31 32
19 20 18 19 20 22 21 22 23 22 21 20 21 22 24 26 28 28 29 30 30 29 28 27 27 26 26 24 22 23 23 24 25 27 29 30 29 30
19 19 18 18 17 20 20 21 21 21 21 20 20 22 24 25 25 26 26 26 27 27 29 30 29 29 28 27 27 25 25 24 26 28 30 29 30 31
15 16 15 15 15 15 15 17 18 20 19 20 20 21 22 23 23 25 26 27 25 25 26 27 29 30 30 29 26 26 26 26 26 26 28 27 28 29
13 14 13 14 14 14 14 15 15 18 18 18 19 19 20 21 22 23 23 23 23 24 25 25 27 27 28 28 30 27 27 26 25 25 27 27 27 27
12 12 13 13 14 14 14 14 14 16 17 17 17 17 18 20 21 21 21 21 22 24 23 23 25 26 22 20 25 27 25 26 26 26 27 28 26 26
11 12 13 14 13 13 13 13 13 13 12 13 14 15 15 18 18 19 20 20 20 22 21 22 22 22 21 21 22 22 24 25 25 24 25 25 27 28
10 10 12 14 12 12 13 12 12 9 9 10 11 12 13 16 16 18 18 18 16 17 16 17 20 23 22 24 21 20 21 23 23 22 22 21 21 24
10 10 10 12 11 11 12 11 11 8 7 8 9 10 11 13 14 16 17 17 17 15 16 19 22 23 20 19 19 20 20 20 21 23 23 21 19 19
10 10 9 10 10 10 12 10 9 7 6 7 7 9 10 11 13 14 14 14 13 13 14 15 17 21 22 19 20 22 20 18 21 20 20 21 23 23
Wind_Speed
13 12 11 10 9 11 11 6 5 11 14 6 11 13 14 15 13 6 4 9 17 17 10 6 17 10 5 5 9 8 8 9 10 11 9 8 7 5
8 8 9 10 10 12 11 13 11 10 8 7 10 10 13 12 13 13 9 4 7 18 18 12 15 20 12 5 4 6 7 8 9 10 11 9 7 5
6 8 10 10 11 12 12 11 13 14 16 15 9 7 5 10 15 15 14 10 2 10 19 11 14 18 16 19 13 9 7 6 4 5 7 7 7 7
8 9 11 12 13 12 12 14 13 14 15 11 3 4 6 9 9 13 14 12 6 2 16 12 15 25 19 12 11 11 9 5 2 1 1 2 2 3
8 10 11 13 15 15 16 16 14 14 14 11 10 6 5 6 11 6 8 12 12 13 12 19 12 23 22 16 13 15 14 9 7 4 2 2 4 3
8 9 11 13 16 17 17 16 15 14 13 12 10 8 6 5 5 6 8 7 14 15 11 9 10 8 4 1 5 8 9 8 6 4 4 4 6 8
9 10 11 15 20 19 15 15 12 10 11 11 10 6 6 5 5 2 5 8 13 4 7 8 11 11 11 10 8 3 7 9 7 6 6 6 7 9
12 12 11 17 15 18 20 21 19 11 12 8 8 8 9 8 6 7 5 6 6 2 6 11 5 8 8 8 8 7 3 8 9 7 5 3 6 10
13 13 14 13 18 16 18 20 19 19 15 12 12 9 9 10 9 9 8 7 9 10 5 10 3 13 8 9 9 7 2 4 5 5 5 5 5 6
12 13 16 16 15 18 18 10 11 12 14 13 13 14 14 11 11 11 11 8 7 11 6 10 8 12 12 9 10 10 9 9 9 10 10 11 10 10
13 15 16 15 18 22 19 11 12 13 11 13 12 9 9 10 10 9 12 12 12 10 6 9 12 12 11 13 11 12 15 16 16 17 18 15 14 14
13 15 17 19 23 22 14 10 13 15 12 12 10 11 11 11 14 13 13 13 11 6 8 11 10 6 5 8 12 12 9 12 16 17 18 19 18 14
14 14 14 21 20 21 19 11 13 12 12 9 10 10 10 10 10 11 13 14 15 17 8 10 5 7 8 6 6 9 5 8 7 10 13 14 16 15
13 14 12 20 20 18 16 17 18 9 9 8 8 9 9 9 9 9 11 13 15 19 12 15 8 12 11 9 10 5 6 7 5 9 8 6 7 10
10 13 16 17 18 13 17 17 13 11 10 9 8 7 8 8 9 7 8 10 12 15 15 13 13 13 12 12 6 8 2 3 4 7 4 4 4 4
11 11 12 13 11 12 13 13 12 12 10 9 8 9 8 8 8 6 7 7 4 5 11 15 16 15 13 13 11 12 10 6 2 3 6 5 7 8
11 10 11 13 13 13 14 14 14 12 13 12 10 9 8 9 7 9 6 5 2 3 4 3 12 14 13 9 10 12 11 12 13 13 6 9 12 11
8 9 10 12 12 12 14 15 15 14 14 13 12 12 11 10 9 9 7 6 7 8 6 5 3 3 4 7 12 10 10 11 10 11 8 10 11 8
10 10 11 11 11 11 12 12 12 13 13 13 12 13 13 11 11 10 10 7 9 8 8 7 8 1 3 4 1 4 4 6 8 7 7 8 9 9
7 9 10 9 10 10 11 11 12 13 14 13 14 14 14 12 11 11 11 10 9 8 10 8 8 6 3 1 2 1 4 3 2 4 3 2 5 7
5 8 8 8 9 9 11 12 12 13 13 13 13 13 14 13 13 12 12 11 12 9 9 9 9 9 4 1 1 3 1 4 1 2 2 2 2 1
4 5 6 6 7 9 10 11 10 12 12 12 12 12 13 12 12 12 12 11 10 10 9 9 10 7 1 1 3 3 2 2 2 1 1 1 1 1
5 5 4 4 4 6 7 9 9 11 11 11 11 12 12 13 12 11 10 11 10 11 11 11 10 6 4 3 1 3 2 2 1 3 2 1 1 2
Wind_Direction
305 308 322 327 324 325 307 290 332 317 326 323 331 312 317 323 316 251 278 26 337 337 300 272 249 250 289 133 111 100 82 71 67 65 51 31 19 13
331 359 357 346 341 337 319 293 268 265 275 289 293 309 339 350 351 348 285 63 332 323 309 277 282 186 204 251 132 130 114 95 80 72 62 44 24 6
355 348 335 331 328 320 313 308 302 280 277 289 251 300 317 348 348 346 341 283 177 327 318 254 274 284 199 190 190 206 183 136 112 82 73 58 35 20
343 335 326 328 316 304 301 298 292 292 283 287 274 293 316 329 332 344 338 338 303 234 308 278 253 259 272 235 207 201 202 200 189 101 29 59 55 23
328 319 317 316 308 301 294 289 287 283 276 258 255 240 266 307 328 336 1 356 350 335 240 287 261 239 258 242 221 206 201 203 215 222 238 286 299 277
303 303 307 307 300 295 291 288 289 286 273 251 258 244 243 272 298 316 338 345 338 335 347 18 22 35 65 130 199 225 224 220 234 265 276 273 283 285
302 301 299 307 310 305 308 306 297 303 299 280 268 242 251 259 272 243 297 314 312 293 344 360 1 7 13 21 43 109 176 176 187 200 231 249 249 251
302 299 292 310 305 308 303 302 299 295 302 286 260 249 251 249 243 276 279 302 303 256 346 309 355 335 348 351 14 14 150 137 138 144 169 212 264 260
306 306 307 307 307 295 295 294 293 288 272 259 283 262 258 248 255 264 257 252 258 281 323 293 323 303 296 306 317 313 169 170 186 194 196 203 225 252
313 307 308 308 305 305 294 301 307 292 276 268 259 258 254 252 244 252 252 253 249 260 249 277 292 285 296 279 270 259 260 262 263 260 249 249 247 246
315 318 315 315 312 322 320 287 292 294 301 301 287 299 264 260 245 239 242 245 253 259 217 231 257 262 271 282 276 261 255 254 251 252 263 267 263 253
325 321 323 326 317 315 309 300 287 288 292 293 292 300 291 277 269 253 247 247 248 268 232 200 243 217 266 237 237 249 246 255 253 251 246 254 256 254
328 328 323 326 340 331 325 299 291 288 280 278 288 286 281 270 258 246 234 228 234 241 207 192 215 219 214 252 264 261 241 278 259 260 247 247 254 243
326 320 322 344 346 352 359 7 2 326 304 284 282 284 281 278 269 256 243 234 228 236 235 212 229 225 231 247 251 259 240 262 266 274 267 262 259 267
332 347 353 352 352 355 359 2 356 359 2 6 353 333 315 302 298 285 279 257 244 238 237 214 214 229 218 226 231 229 241 273 271 236 283 256 282 291
343 339 337 342 342 351 352 351 354 349 345 339 334 327 318 328 321 309 288 293 268 272 233 218 216 224 229 224 225 247 232 242 278 274 227 247 264 257
353 353 356 357 358 359 356 357 355 355 354 348 342 339 335 331 330 336 334 10 13 328 312 259 218 217 225 227 230 237 241 238 243 253 245 268 269 255
4 358 359 357 357 359 358 353 357 357 356 353 354 351 343 343 356 3 12 19 30 18 46 351 336 178 206 235 229 251 237 247 249 242 224 241 262 279
10 358 0 2 357 359 358 353 353 355 352 356 355 352 351 355 9 13 12 18 28 27 23 26 44 59 226 248 194 54 285 259 239 224 215 221 259 273
15 3 355 355 359 359 1 358 354 355 358 355 355 353 355 356 360 9 16 24 24 16 15 10 29 35 42 282 314 305 7 304 231 227 231 271 274 280
358 5 1 360 360 355 358 359 1 0 356 356 355 356 354 355 359 1 13 26 30 14 5 355 323 304 257 79 323 301 306 9 171 217 197 229 257 263
306 340 352 356 359 359 353 358 -0 3 360 359 354 351 351 351 357 358 10 10 10 15 352 336 344 359 80 204 271 237 236 315 318 332 179 197 178 311
276 283 314 329 339 349 349 355 357 358 357 353 350 348 349 355 351 356 358 12 12 13 5 354 359 21 29 52 287 221 266 281 311 318 265 282 242 261